Weather in Turiysk

Ukraine / Volyn Oblast     51°05′18″N   24°31′28″E
temp.,
°C
wind,
m/s
gust,
m/s
humid.,
%
clouds,
%
prec.,
mm/h
press.,
hPa
HPBL,
m
28 february, sun
sun2823:00+2nw7128298 0.1 1028599
02:000nw6119176 0.1 1030381
05:00−1nw699462 0.0 1030413
08:000wnw598981 0.0 1031456
11:00+2wnw588088 0.0 1030505
14:00+5w6106875 0.0 1028710
17:00+5wnw71275100 0.0 1026924
20:00+3nw71386100 0.0 1025714
1 march, mon
mon123:00+3nnw61196100 0.8 1026632
02:00+3nnw5109298 1.4 1028516
05:00+2n389588 0.1 1030387
08:00+2nnw259389 0.1 1032175
11:00+4nnw347399 0.1 1033770
14:00+6nw346595 0.1 1034894
17:00+5wnw457297 0.0 1033797
20:00+2w348870 0.0 103476
2 march, tue
tue223:00+1wsw369441 0.0 1033124
02:00+1wsw489453 0.0 1033178
05:00+1w512930 0.0 1031290
08:00+2w614910 0.0 1030399
11:00+6wnw711730 0.0 1030664
14:00+8wnw711640 0.0 1029805
17:00+8wnw612670 0.0 1028731
20:00+5wnw513840 0.0 1029379
3 march, wed
wed323:00+3nw489216 0.0 1030208
02:00+2wnw369516 0.0 1031126
05:000nw33962 0.0 103071
08:00+1nw22976 0.0 103175
11:00+5wnw227624 0.0 1031416
14:00+8w236312 0.0 1030684
17:00+8w236618 0.0 1027229
20:00+4sw128033 0.0 102722
4 march, thu
thu423:00+3ssw33889 0.0 102536
02:00+2sw44875 0.0 102392
05:00+1sw47911 0.0 1021144
08:00+2sw510910 0.0 1019241
11:00+7wsw710691 0.0 1017659
14:00+10wsw795919 0.0 1014971
17:00+9wsw596457 0.0 1012862
20:00+6wsw498070 0.0 1010179